Torna al catalogo

COSMOS 2478

GLONASS

AttivoNavigazioneMEO
NORAD 37938·PAYLOAD·🇷🇺 Russia

Lanciato Nov 28, 2011 da Plesetsk Cosmodrome

Loading…

Prossimi Passaggi (prossime 24 ore)

TLE

AggiornatoSource: Space-Track

Epoca: Sep 11, 2026, 19:15 UTC

1 37938U 11071A   26254.80270102 -.00000042  00000-0  00000-0 0  9996
2 37938  65.4082 311.9365 0018491 219.8991 138.0783  2.13015663114987

Traccia COSMOS 2478 in tempo reale con AllMySat

Download on the App Store